Regional Weather Roundup
Issued by NWS Grand Forks, ND

Home | Current Version | Previous Version | Text Only | Print | Product List | Glossary Off
Versions: 1 2 3 4 5 6 7 8 9 10 11 12 13 14 15 16 17 18 19 20 21 22 23 24 25 26 27 28 29 30 31 32 33 34 35 36 37 38 39 40 41 42 43 44 45 46 47 48 49 50

000
ASUS43 KFGF 281731
RWRFGF
PRAIRIE TO PINES  WEATHER ROUNDUP
NATIONAL WEATHER SERVICE EASTERN NORTH DAKOTA/GRAND FORKS ND
1200 PM CDT TUE MAR 28 2017

 **SATELLITE DATA USED TO AUGMENT SKY COVER AT AUTOMATED STATIONS**
 *****  WEATHER ACROSS EASTERN NORTH DAKOTA  *****

CITY           SKY/WX    TMP DP  RH WIND       PRES   REMARKS
GRAND FORKS    PTSUNNY   45  37  73 N7        30.20R
GRAND FRKS AFB FAIR      44  37  77 N7        30.21R
DEVILS LAKE    FAIR      46  36  68 SE9       30.18
FARGO          FAIR      44  39  82 N5        30.18S
WAHPETON ARPT    N/A     41  37  87 W5        30.19R
$$

 ***** WEATHER ACROSS CENTRAL AND WESTERN NORTH DAKOTA  *****

CITY           SKY/WX    TMP DP  RH WIND       PRES   REMARKS
BISMARCK       FAIR      43  37  79 NE7       30.14S
MINOT          CLOUDY    39  37  92 E7        30.13R FOG
JAMESTOWN      FAIR      39  37  92 CALM      30.17R
MINOT AFB      FOG       37  37  99 SE9       30.13R VSB 1
GARRISON         N/A     35  35 100 SE9       30.12S
WILLISTON      CLOUDY    44  38  79 N5        30.09R
DICKINSON      FAIR      47  37  68 SE8       30.06S
HETTINGER      FAIR      53  37  54 SE14      30.08S
$$

 *****  OTHER AIRPORT OBSERVATIONS IN OUR AREA  *****

CITY           SKY/WX    TMP DP  RH WIND       PRES   REMARKS
WALHALLA       NOT AVBL
GRAFTON AIRPOR FAIR      41  39  93 N7        30.24R
VALLEY CITY AR FAIR      46  45  93 E5        30.19R
CANDO          NOT AVBL
CAVALIER APRT    N/A     36  32  87 NW12      30.23R
GWINNER        PTSUNNY   41  41 100 MISG      30.18R
SHEYENNE NWR     N/A     40  40 100 W2        29.95S
ROLLA          PTSUNNY   34  34 100 NE7       30.19R
 ***** THE ABOVE OBSERVATIONS ARE NON NWS ARE NOT QUALITY
       CONTROLLED AND MAY MIS-REPORT RAIN FOR SNOW...
$$

  *****  WEATHER ACROSS NORTHERN MINNESOTA  *****

CITY           SKY/WX    TMP DP  RH WIND       PRES   REMARKS
FLAG ISLAND    FAIR      37  27  65 N6        30.23R
WARROAD        FAIR      37  30  75 NE8       30.22S
ROSEAU         FAIR      48  36  61 NE6       30.20S
HALLOCK        FAIR      43  36  75 N7        30.21S
THF RVR FALLS  FAIR      49  36  61 E8        30.19R
BAUDETTE       FAIR      49  33  54 N8        30.20R
WASKISH        FAIR      52  36  54 NW6       30.17S
CROOKSTON      FAIR      48  39  71 N6        30.20S
STEPHEN NDAWN    N/A     43  39  87 N10         N/A
GREENBUSH NDAW   N/A     45  37  76 NE7         N/A
$$
  *****  WEATHER ACROSS CENTRAL AND WEST MINNESOTA  *****

CITY           SKY/WX    TMP DP  RH WIND       PRES   REMARKS
FOSSTON        FAIR      54  39  58 NE5       30.17S
BEMIDJI        FAIR      52  29  41 NE5       30.16S
PARK RAPIDS    FAIR      56  29  35 N5        30.14S
ELBOW LAKE     FAIR      51  39  63 CALM      30.17S
WADENA         FAIR      55  36  47 N5        30.15S
DETROIT LAKES  FAIR      52  32  46 CALM      30.17S
MOORHEAD       CLOUDY    39  37  93 N6        30.19S FOG
FERGUS FALLS   FAIR      48  39  71 W6        30.20S
MORRIS MN      FAIR      57  37  47 CALM      30.16R
STAPLES        FAIR      57  36  44 N5        30.15S
$$
  *****  WEATHER ELSEWHERE ACROSS MINNESOTA  *****

CITY           SKY/WX    TMP DP  RH WIND       PRES   REMARKS
DULUTH         FAIR      54  31  41 CALM      30.15R
INTRNTL FALLS  FAIR      49  30  48 NE8       30.19R
ELY            FAIR      48  25  40 N3        30.16R
CLOQUET        FAIR      55  28  35 S6        30.15S
WHEATON        FAIR      45  37  76 N3        30.20S
BRAINERD       FAIR      55  35  47 SW6       30.16R
HIBBING        FAIR      52  30  43 CALM      30.14S
ALEXANDRIA     FAIR      56  36  47 VRB3      30.16R
SAINT CLOUD    FAIR      57  32  38 VRB5      30.15S
MINNEAPOLIS    FAIR      57  36  45 NE7       30.16R
$$

  *****  WEATHER ACROSS SOUTH DAKOTA  *****

CITY           SKY/WX    TMP DP  RH WIND       PRES   REMARKS
SIOUX FALLS    CLOUDY    55  40  56 E6        30.14S
BROOKINGS      FAIR      55  36  48 E10       30.14R
WATERTOWN      FAIR      54  36  50 E10       30.14R
HURON          FAIR      53  41  63 SE7       30.14R
SISSETON         N/A     43  40  89 N3        30.17R
ABERDEEN       FAIR      48  36  63 NE6       30.16S
MITCHELL       FAIR      53  40  61 MISG      30.15R
PIERRE         CLOUDY    51  42  71 SE12      30.09R
MOBRIDGE       FAIR      53  39  59 SE8       30.09R
RAPID CITY     LGT RAIN  42  38  85 CALM      30.03R FOG
$$

  *****  SOME WEATHER IN NEARBY STATES *****

CITY           SKY/WX    TMP DP  RH WIND       PRES   REMARKS
GLASGOW MT     PTSUNNY   39  34  82 SW3       30.10R
GREAT FALLS MT FAIR      47  23  38 SW18G28   30.11S
CHEYENNE WY    CLOUDY    40  38  93 N15       29.90S
SCOTTSBLUFF NE LGT RAIN  46  44  93 E17       29.93R
OMAHA NE       CLOUDY    49  40  71 E8        30.13R
DES MOINES IA  CLOUDY    50  42  74 E3        30.14R
DAVENPORT IA   CLOUDY    49  44  83 E9        30.14R
CHICAGO IL     PTSUNNY   47  37  68 NE12      30.12S
EAU CLAIRE WI  FAIR      50  38  63 E3        30.16S
LA CROSSE WI   FAIR      50  39  66 W7        30.16F
$$

  *****  SOME NATIONAL WEATHER *****

CITY           SKY/WX    TMP DP  RH WIND       PRES   REMARKS
LA GUARDIA NY  LGT RAIN  43  40  89 NE8       29.95R VSB 1
RALEIGH NC     PTSUNNY   71  59  65 W10       29.92F
ATLANTA GA     PTSUNNY   76  63  64 W12G18    30.00F
NEW ORLEANS LA FAIR      80  67  64 S9        30.01F
OKLAHOMA CITY  PTSUNNY   60  47  61 E18       29.88F
ALBUQUERQUE NM FAIR      50  36  58 N3        29.82S
SALT LAKE CITY FAIR      46  34  62 NW13      30.14S
LOS ANGELES CA FAIR      66  46  48 SE7       30.03F
BOISE ID       FAIR      44  32  62 NW9       30.28R
SEATTLE WA     LGT RAIN  47  42  83 S12G21    30.20S
$$

*** WEATHER ACROSS MANITOBA...SASKATCHEWAN AND ONTARIO ***
                ***ONTARIO***

CITY           SKY/WX    TMP DP  RH WIND       PRES   REMARKS
GERALDTON      CLOUDY    30  23  74 N6        30.21R WCI  24
THUNDER BAY    PTSUNNY   48  27  43 SE3       30.17R
SIOUX LOOKOUT  PTSUNNY   36  18  48 VRB2      30.24R
TORONTO        CLOUDY    43  37  81 N15G21    29.98F
BIG TROUT LK   CLOUDY    19  12  73 NW7       30.34R WCI  10
PICKLE LAKE    CLOUDY    25  14  63 N6        30.28R WCI  18
DRYDEN         CLOUDY    36  23  60 E9        30.23R
KENORA         PTSUNNY   39  25  56 NE5       30.23
$$
                *** MANITOBA***

CITY           SKY/WX    TMP DP  RH WIND       PRES   REMARKS
BRANDON        FLURRIES  30  25  80 E13G18    30.23R WCI  20
DAUPHIN        CLOUDY    28  23  80 E5        30.28R WCI  23
ISLAND LAKE    MOSUNNY   19  10  68 W5        30.37  WCI  13
PILOT MOUND      N/A     32  28  86 NE6         N/A
THE PAS        CLOUDY    27  16  63 SE8       30.29F WCI  18
THOMPSON       PTSUNNY   16   9  73 SW2       30.39S
WINNIPEG       PTSUNNY   34  28  80 N9        30.27R
LYNN LAKE      MOSUNNY   19  19 100 SE7       30.29F WCI  10
CHURCHILL      MOSUNNY    5   1  85 SE2       30.48F
GILLAM         FLURRIES  19   5  53 N5        30.43F WCI  13
$$
                ***SASKATCHEWAN***

CITY           SKY/WX    TMP DP  RH WIND       PRES   REMARKS
ESTEVAN        CLOUDY    34  34 100 E15       30.11S FOG     WCI  24
KINDERSLEY     MOSUNNY   45  36  70 SE6       29.95S
LLOYDMINSTER   FOG       36  36 100 SE13      29.95S VSB 1/2
PRINCE ALBERT  CLOUDY    34  32  93 SE8       30.11S
REGINA         CLOUDY    37  34  87 SE17      30.10F
YORKTON        CLOUDY    36  27  69 SE15G21   30.18S
N. BATTLEFORD  LGT RAIN  36 N/A N/A SE9       30.04S
LA RONGE       CLOUDY    30  21  69 E9        30.15F WCI  22
SASKATOON      CLOUDY    39  34  81 SE14      30.06F
SWIFT CURRENT  SUNNY     48  32  53 SW13G18   29.98S
$$
NOTE: THESE ARE AUTOMATED STATIONS WITH LIMITED QUALITY CONTROL
      "FAIR" INDICATES FEW OR NO CLOUDS BELOW 12,000 FEET WITH NO
      SIGNIFICANT WEATHER AND/OR OBSTRUCTIONS TO VISIBILITY.
      SKY/WX - SKY CONDITION AND SIGNIFICANT WEATHER.
      TMP - AIR TEMPERATURE.    DP   - DEWPOINT TEMPERATURE.
      RH  - RELATIVE HUMIDITY.  PRES - PRESSURE.
      HX  - HEAT INDEX.         WCI  - WIND CHILL INDEX.
$



USA.gov is the U.S. government's official web portal to all federal, state and local government web resources and services.